Time,TemperatureF,DewpointF,PressureIn,WindDirection,WindDirectionDegrees,WindSpeedMPH,WindSpeedGustMPH,Humidity,HourlyPrecipIn,Conditions,Clouds,dailyrainin,SoftwareType,DateUTC
2013-09-17 02:22:00,34.0,32.0,30.17,SSW,203,0.0,0.0,94,0.00,,,0.10,,2013-09-17 06:22:00,
2013-09-17 02:52:00,34.0,32.0,30.17,SSW,203,0.0,0.0,94,0.00,,,0.10,,2013-09-17 06:52:00,
2013-09-17 03:02:00,34.0,32.0,30.17,SSW,203,0.0,0.0,94,0.00,,,0.10,,2013-09-17 07:02:00,
2013-09-17 04:52:00,36.0,35.0,30.19,SW,233,0.0,0.0,95,0.00,,,0.09,,2013-09-17 08:52:00,
2013-09-17 05:22:00,36.0,34.0,30.19,SW,233,0.0,0.0,93,0.00,,,0.09,,2013-09-17 09:22:00,
2013-09-17 05:33:00,36.0,34.0,30.19,SW,233,0.0,0.0,93,0.00,,,0.09,,2013-09-17 09:33:00,
2013-09-17 05:53:00,36.0,34.0,30.19,SW,233,0.0,0.0,93,0.00,,,0.09,,2013-09-17 09:53:00,
2013-09-17 06:53:00,37.0,34.0,30.24,WSW,240,0.0,0.0,88,0.00,,,0.00,,2013-09-17 10:53:00,
2013-09-17 07:03:00,37.0,34.0,30.24,WSW,240,0.0,0.0,88,0.00,,,0.00,,2013-09-17 11:03:00,
2013-09-17 07:11:00,37.0,34.0,30.24,WSW,240,0.0,0.0,88,0.00,,,0.00,,2013-09-17 11:11:00,
2013-09-17 07:22:00,37.0,34.0,30.24,WSW,240,0.0,0.0,88,0.00,,,0.00,,2013-09-17 11:22:00,
2013-09-17 08:22:00,42.0,36.0,30.26,SW,215,0.0,4.0,79,0.00,,,0.00,,2013-09-17 12:22:00,
2013-09-17 08:52:00,42.0,36.0,30.26,SW,215,0.0,4.0,79,0.00,,,0.00,,2013-09-17 12:52:00,
2013-09-17 09:50:00,55.0,41.0,30.27,West,268,0.0,0.0,60,0.00,,,0.00,,2013-09-17 13:50:00,
2013-09-17 10:22:00,55.0,41.0,30.27,West,268,0.0,0.0,60,0.00,,,0.00,,2013-09-17 14:22:00,
2013-09-17 11:22:00,58.0,39.0,30.26,West,265,0.0,0.0,50,0.00,,,0.00,,2013-09-17 15:22:00,
2013-09-17 11:53:00,60.0,42.0,30.26,SW,233,2.0,8.0,52,0.00,,,0.00,,2013-09-17 15:53:00,
2013-09-17 12:23:00,61.0,38.0,30.25,WSW,251,0.0,4.0,43,0.00,,,0.00,,2013-09-17 16:23:00,
2013-09-17 12:54:00,61.0,38.0,30.25,WSW,251,0.0,4.0,43,0.00,,,0.00,,2013-09-17 16:54:00,
2013-09-17 13:03:00,61.0,38.0,30.25,WSW,251,0.0,4.0,43,0.00,,,0.00,,2013-09-17 17:03:00,
2013-09-17 13:24:00,63.0,42.0,30.24,NNE,25,0.0,5.0,47,0.00,,,0.00,,2013-09-17 17:24:00,
2013-09-17 13:34:00,63.0,42.0,30.24,NNE,25,0.0,5.0,47,0.00,,,0.00,,2013-09-17 17:34:00,
2013-09-17 13:43:00,63.0,42.0,30.24,NNE,25,0.0,5.0,47,0.00,,,0.00,,2013-09-17 17:43:00,
2013-09-17 13:53:00,63.0,42.0,30.24,NNE,25,0.0,5.0,47,0.00,,,0.00,,2013-09-17 17:53:00,
2013-09-17 21:30:00,44.0,42.0,30.17,WSW,241,0.0,0.0,93,0.00,,,0.00,,2013-09-18 01:30:00,
2013-09-17 21:53:00,44.0,42.0,30.17,WSW,241,0.0,0.0,93,0.00,,,0.00,,2013-09-18 01:53:00,
2013-09-17 22:03:00,44.0,42.0,30.17,WSW,241,0.0,0.0,93,0.00,,,0.00,,2013-09-18 02:03:00,
2013-09-17 22:11:00,44.0,42.0,30.17,WSW,241,0.0,0.0,93,0.00,,,0.00,,2013-09-18 02:11:00,
2013-09-17 22:22:00,44.0,42.0,30.17,WSW,241,0.0,0.0,93,0.00,,,0.00,,2013-09-18 02:22:00,
2013-09-17 22:52:00,42.0,40.0,30.17,WSW,241,0.0,0.0,93,0.00,,,0.00,,2013-09-18 02:52:00,
2013-09-17 23:02:00,42.0,40.0,30.17,WSW,241,0.0,0.0,93,0.00,,,0.00,,2013-09-18 03:02:00,
2013-09-17 23:12:00,42.0,40.0,30.17,WSW,241,0.0,0.0,93,0.00,,,0.00,,2013-09-18 03:12:00,
2013-09-17 23:23:00,42.0,40.0,30.17,WSW,241,0.0,0.0,93,0.00,,,0.00,,2013-09-18 03:23:00,